User: anonymous   Login
Location: Bushey
(51.6333°N, 0.3667°W)
Time: 04:35:56
(UTC+00:00)
Language:

SPOT 3 Rocket - Orbit

View from above orbital plane
View from above orbital plane
View from above satellite
View from above satellite

Ground track
Ground track

The orbit data is extracted from the following two-line orbital elements,

1 22830U 93061H   21128.40069754 -.00000013  00000-0  12063-4 0  9994
2 22830  98.7167 185.8042 0012127  90.2305 270.0268 14.31479675441567
Epoch (UTC): 08 May 2021 09:37:00
Eccentricity: 0.0012127
inclination: 98.7167°
perigee height: 778 km
apogee height: 795 km
right ascension of ascending node: 185.8042°
argument of perigee: 90.2305°
revolutions per day: 14.31479675
mean anomaly at epoch: 270.0268°
orbit number at epoch: 44156

The dashed part of the orbit path shows where the satellite is in the earth's shadow,  

DLR